| time (UTC) | temp C | wind direction | speed KPH | gust KPH | rain 1hr cm | rain 24hr cm | rain mn cm | humidity % | barometer mb |
| 20260505215018 | 9 | 309 | 6.4 | 14.5 | 0.00 | 0.00 | 0.00 | 81 | 1015.3 |
| 20260505214559 | 9 | 333 | 8.0 | 14.5 | 0.00 | 0.00 | 0.00 | 81 | 1015.4 |
| 20260505214021 | 9 | 335 | 6.4 | 14.5 | 0.00 | 0.00 | 0.00 | 81 | 1015.3 |
| 20260505213517 | 9 | 315 | 8.0 | 14.5 | 0.00 | 0.00 | 0.00 | 81 | 1015.3 |
| 20260505213036 | 9 | 320 | 6.4 | 16.1 | 0.00 | 0.00 | 0.00 | 80 | 1015.4 |
| 20260505212518 | 9 | 340 | 9.7 | 16.1 | 0.00 | 0.00 | 0.00 | 80 | 1015.3 |
| 20260505212017 | 9 | 2 | 9.7 | 16.1 | 0.00 | 0.00 | 0.00 | 80 | 1015.4 |
| 20260505211532 | 9 | 357 | 8.0 | 16.1 | 0.00 | 0.00 | 0.00 | 80 | 1015.4 |
| 20260505211016 | 9 | 342 | 6.4 | 14.5 | 0.00 | 0.00 | 0.00 | 80 | 1015.4 |
| 20260505210519 | 9 | 331 | 8.0 | 14.5 | 0.00 | 0.00 | 0.00 | 81 | 1015.3 |
| 20260505210034 | 9 | 335 | 6.4 | 14.5 | 0.00 | 0.00 | 0.00 | 81 | 1015.4 |
| 20260505205516 | 9 | 319 | 3.2 | 12.9 | 0.00 | 0.00 | 0.00 | 81 | 1015.4 |
| 20260505205018 | 9 | 319 | 4.8 | 12.9 | 0.00 | 0.00 | 0.00 | 82 | 1015.5 |
| 20260505204537 | 9 | 319 | 4.8 | 11.3 | 0.00 | 0.00 | 0.00 | 82 | 1015.5 |
| 20260505204019 | 9 | 321 | 4.8 | 11.3 | 0.00 | 0.00 | 0.00 | 81 | 1015.4 |
| 20260505203518 | 9 | 342 | 4.8 | 12.9 | 0.00 | 0.00 | 0.00 | 81 | 1015.4 |
| 20260505203043 | 9 | 346 | 4.8 | 12.9 | 0.00 | 0.00 | 0.00 | 81 | 1015.4 |
| 20260505202518 | 9 | 338 | 6.4 | 12.9 | 0.00 | 0.00 | 0.00 | 81 | 1015.4 |
| 20260505202017 | 9 | 318 | 6.4 | 12.9 | 0.00 | 0.00 | 0.00 | 81 | 1015.5 |
| 20260505201537 | 9 | 344 | 8.0 | 12.9 | 0.00 | 0.00 | 0.00 | 81 | 1015.4 |
| 20260505201015 | 9 | 330 | 8.0 | 16.1 | 0.00 | 0.00 | 0.00 | 81 | 1015.4 |
| 20260505200516 | 9 | 321 | 8.0 | 16.1 | 0.00 | 0.00 | 0.00 | 80 | 1015.3 |
| 20260505200034 | 9 | 328 | 6.4 | 16.1 | 0.00 | 0.00 | 0.00 | 81 | 1015.2 |
| 20260505195521 | 9 | 315 | 8.0 | 14.5 | 0.00 | 0.00 | 0.00 | 81 | 1015.2 |
| 20260505195015 | 9 | 329 | 8.0 | 12.9 | 0.00 | 0.00 | 0.00 | 81 | 1015.2 |
| 20260505194540 | 9 | 310 | 9.7 | 16.1 | 0.00 | 0.00 | 0.00 | 81 | 1015.3 |
| 20260505194019 | 9 | 304 | 8.0 | 16.1 | 0.00 | 0.00 | 0.00 | 81 | 1015.2 |
| 20260505193519 | 9 | 309 | 8.0 | 12.9 | 0.00 | 0.00 | 0.00 | 81 | 1015.1 |
| 20260505193036 | 9 | 321 | 8.0 | 12.9 | 0.00 | 0.00 | 0.00 | 81 | 1015.0 |
| 20260505192518 | 9 | 315 | 8.0 | 16.1 | 0.00 | 0.00 | 0.00 | 80 | 1015.0 |
| 20260505192021 | 10 | 309 | 9.7 | 16.1 | 0.00 | 0.00 | 0.00 | 80 | 1014.9 |
| 20260505191536 | 10 | 331 | 8.0 | 17.7 | 0.00 | 0.00 | 0.00 | 79 | 1015.0 |
| 20260505191018 | 10 | 311 | 9.7 | 17.7 | 0.00 | 0.00 | 0.00 | 78 | 1015.0 |
| 20260505190515 | 10 | 311 | 9.7 | 17.7 | 0.00 | 0.00 | 0.00 | 77 | 1014.9 |
| 20260505190037 | 10 | 324 | 8.0 | 16.1 | 0.00 | 0.00 | 0.00 | 77 | 1014.9 |
| 20260505185517 | 10 | 338 | 9.7 | 20.9 | 0.00 | 0.00 | 0.00 | 76 | 1014.9 |
| 20260505185105 | 10 | 318 | 11.3 | 20.9 | 0.00 | 0.00 | 0.00 | 75 | 1014.9 |
| 20260505184535 | 11 | 309 | 11.3 | 19.3 | 0.00 | 0.00 | 0.00 | 74 | 1014.9 |
| 20260505184018 | 11 | 331 | 11.3 | 19.3 | 0.00 | 0.00 | 0.00 | 74 | 1014.9 |
| 20260505183517 | 11 | 319 | 12.9 | 20.9 | 0.00 | 0.00 | 0.00 | 73 | 1014.9 |
| 20260505183033 | 11 | 321 | 11.3 | 20.9 | 0.00 | 0.00 | 0.00 | 74 | 1014.9 |
| 20260505182519 | 11 | 330 | 11.3 | 20.9 | 0.00 | 0.00 | 0.00 | 74 | 1014.9 |
| 20260505182015 | 11 | 326 | 9.7 | 20.9 | 0.00 | 0.00 | 0.00 | 73 | 1014.9 |
| 20260505181533 | 11 | 314 | 9.7 | 19.3 | 0.00 | 0.00 | 0.00 | 73 | 1014.9 |
| 20260505181017 | 12 | 360 | 9.7 | 22.5 | 0.00 | 0.00 | 0.00 | 73 | 1014.7 |
| 20260505180518 | 12 | 316 | 11.3 | 22.5 | 0.00 | 0.00 | 0.00 | 72 | 1014.7 |
| 20260505180057 | 12 | 327 | 14.5 | 22.5 | 0.00 | 0.00 | 0.00 | 70 | 1014.7 |
| 20260505175521 | 12 | 322 | 12.9 | 24.1 | 0.00 | 0.00 | 0.00 | 71 | 1014.8 |
| 20260505175022 | 12 | 331 | 12.9 | 24.1 | 0.00 | 0.00 | 0.00 | 71 | 1014.7 |
| 20260505174553 | 12 | 316 | 12.9 | 20.9 | 0.00 | 0.00 | 0.00 | 70 | 1014.7 |
| 20260505174018 | 12 | 308 | 11.3 | 19.3 | 0.00 | 0.00 | 0.00 | 70 | 1014.7 |
| 20260505173519 | 12 | 342 | 11.3 | 19.3 | 0.00 | 0.00 | 0.00 | 71 | 1014.7 |
| 20260505173043 | 12 | 10 | 11.3 | 22.5 | 0.00 | 0.00 | 0.00 | 71 | 1014.8 |
| 20260505172515 | 12 | 334 | 12.9 | 24.1 | 0.00 | 0.00 | 0.00 | 71 | 1014.7 |
| 20260505172015 | 12 | 319 | 12.9 | 24.1 | 0.00 | 0.00 | 0.00 | 70 | 1014.7 |
| 20260505171534 | 12 | 326 | 14.5 | 20.9 | 0.00 | 0.00 | 0.00 | 70 | 1014.8 |
| 20260505171021 | 12 | 336 | 12.9 | 20.9 | 0.00 | 0.00 | 0.00 | 69 | 1014.9 |
| 20260505170515 | 12 | 317 | 12.9 | 25.7 | 0.00 | 0.00 | 0.00 | 70 | 1014.8 |
| 20260505170038 | 12 | 34 | 12.9 | 25.7 | 0.00 | 0.00 | 0.00 | 69 | 1014.9 |
| 20260505165518 | 13 | 352 | 14.5 | 24.1 | 0.00 | 0.00 | 0.00 | 69 | 1014.9 |
| 20260505165016 | 13 | 320 | 14.5 | 25.7 | 0.00 | 0.00 | 0.00 | 70 | 1014.9 |
| 20260505164533 | 13 | 309 | 12.9 | 25.7 | 0.00 | 0.00 | 0.00 | 72 | 1015.0 |
| 20260505164017 | 13 | 324 | 11.3 | 25.7 | 0.00 | 0.00 | 0.00 | 72 | 1015.0 |
| 20260505163520 | 13 | 333 | 12.9 | 25.7 | 0.00 | 0.00 | 0.00 | 71 | 1015.0 |
| 20260505163035 | 12 | 342 | 14.5 | 27.4 | 0.00 | 0.00 | 0.00 | 70 | 1015.0 |
| 20260505162516 | 12 | 356 | 12.9 | 29.0 | 0.00 | 0.00 | 0.00 | 73 | 1015.0 |
| 20260505162016 | 13 | 330 | 17.7 | 30.6 | 0.00 | 0.00 | 0.00 | 74 | 1014.9 |
| 20260505161537 | 13 | 347 | 17.7 | 30.6 | 0.00 | 0.00 | 0.00 | 72 | 1015.0 |
| 20260505161019 | 13 | 325 | 20.9 | 30.6 | 0.00 | 0.00 | 0.00 | 72 | 1014.9 |
| 20260505160516 | 13 | 314 | 14.5 | 27.4 | 0.00 | 0.00 | 0.00 | 71 | 1015.0 |
| 20260505153032 | 14 | 336 | 12.9 | 25.7 | 0.00 | 0.00 | 0.00 | 64 | 1015.0 |
| 20260505152516 | 14 | 319 | 14.5 | 24.1 | 0.00 | 0.00 | 0.00 | 67 | 1015.0 |
| 20260505152015 | 14 | 311 | 12.9 | 24.1 | 0.00 | 0.00 | 0.00 | 64 | 1015.0 |
| 20260505151534 | 14 | 339 | 12.9 | 24.1 | 0.00 | 0.00 | 0.00 | 63 | 1015.0 |
| 20260505151019 | 14 | 336 | 16.1 | 24.1 | 0.00 | 0.00 | 0.00 | 62 | 1015.0 |
| 20260505150520 | 14 | 348 | 11.3 | 22.5 | 0.00 | 0.00 | 0.00 | 64 | 1015.0 |
| 20260505140516 | 14 | 309 | 11.3 | 20.9 | 0.00 | 0.00 | 0.00 | 61 | 1015.1 |
| 20260505125015 | 14 | 313 | 12.9 | 20.9 | 0.00 | 0.13 | 0.00 | 62 | 1015.0 |
| 20260505124537 | 15 | 6 | 9.7 | 25.7 | 0.00 | 0.13 | 0.00 | 65 | 1015.0 |
| 20260505124016 | 14 | 23 | 12.9 | 25.7 | 0.00 | 0.13 | 0.00 | 64 | 1015.1 |
| 20260505123518 | 15 | 327 | 9.7 | 19.3 | 0.00 | 0.13 | 0.00 | 65 | 1015.1 |
| 20260505123034 | 14 | 324 | 12.9 | 20.9 | 0.00 | 0.13 | 0.00 | 64 | 1015.1 |
| 20260505122519 | 15 | 321 | 11.3 | 20.9 | 0.00 | 0.13 | 0.00 | 61 | 1015.1 |
| 20260505122022 | 15 | 321 | 9.7 | 19.3 | 0.00 | 0.13 | 0.00 | 66 | 1015.1 |
| 20260505121535 | 14 | 326 | 11.3 | 22.5 | 0.00 | 0.13 | 0.00 | 63 | 1015.1 |
| 20260505121019 | 14 | 331 | 12.9 | 22.5 | 0.00 | 0.13 | 0.00 | 66 | 1015.1 |
| 20260505120515 | 14 | 321 | 9.7 | 20.9 | 0.00 | 0.13 | 0.00 | 64 | 1015.1 |
| 20260505120038 | 14 | 338 | 12.9 | 20.9 | 0.00 | 0.13 | 0.00 | 63 | 1015.1 |
| 20260505115653 | 14 | 346 | 9.7 | 20.9 | 0.00 | 0.20 | 0.00 | 62 | 1015.1 |
| 20260505115015 | 14 | 329 | 11.3 | 20.9 | 0.00 | 0.20 | 0.00 | 66 | 1015.0 |
| 20260505114552 | 14 | 328 | 11.3 | 20.9 | 0.00 | 0.20 | 0.00 | 62 | 1015.1 |
| 20260505114021 | 14 | 329 | 11.3 | 20.9 | 0.00 | 0.20 | 0.00 | 63 | 1015.2 |
| 20260505113524 | 13 | 329 | 9.7 | 19.3 | 0.00 | 0.20 | 0.00 | 63 | 1015.2 |
| 20260505113031 | 13 | 2 | 11.3 | 19.3 | 0.00 | 0.20 | 0.00 | 63 | 1015.3 |
| 20260505112517 | 13 | 340 | 9.7 | 19.3 | 0.00 | 0.20 | 0.00 | 63 | 1015.3 |
| 20260505112015 | 13 | 329 | 8.0 | 16.1 | 0.00 | 0.20 | 0.00 | 68 | 1015.3 |
| 20260505111531 | 13 | 3 | 9.7 | 14.5 | 0.00 | 0.20 | 0.00 | 63 | 1015.3 |
| 20260505111017 | 13 | 321 | 9.7 | 24.1 | 0.00 | 0.20 | 0.00 | 64 | 1015.3 |
| 20260505110514 | 13 | 356 | 9.7 | 24.1 | 0.00 | 0.20 | 0.00 | 66 | 1015.2 |
| 20260505102017 | 13 | 345 | 11.3 | 20.9 | 0.00 | 0.20 | 0.00 | 65 | 1015.6 |
| 20260505101534 | 13 | 359 | 11.3 | 20.9 | 0.00 | 0.20 | 0.00 | 64 | 1015.7 |
| 20260505101017 | 13 | 320 | 11.3 | 20.9 | 0.00 | 0.20 | 0.00 | 64 | 1015.7 |
| 20260505100515 | 13 | 330 | 11.3 | 20.9 | 0.00 | 0.20 | 0.00 | 64 | 1015.7 |
| 20260505100031 | 13 | 338 | 6.4 | 19.3 | 0.00 | 0.20 | 0.00 | 69 | 1015.7 |
| 20260505095517 | 13 | 337 | 9.7 | 16.1 | 0.00 | 0.41 | 0.00 | 67 | 1015.7 |
| 20260505095016 | 13 | 338 | 3.2 | 12.9 | 0.00 | 0.41 | 0.00 | 70 | 1015.7 |
| 20260505094530 | 13 | 344 | 4.8 | 17.7 | 0.00 | 0.41 | 0.00 | 69 | 1015.7 |
| 20260505094015 | 13 | 358 | 6.4 | 17.7 | 0.00 | 0.41 | 0.00 | 69 | 1015.8 |
| 20260505093518 | 13 | 355 | 6.4 | 17.7 | 0.00 | 0.41 | 0.00 | 70 | 1015.7 |
| 20260505093037 | 13 | 335 | 6.4 | 17.7 | 0.00 | 0.41 | 0.00 | 68 | 1015.8 |
| 20260505092516 | 12 | 356 | 8.0 | 20.9 | 0.00 | 0.41 | 0.00 | 69 | 1015.8 |
| 20260505092016 | 13 | 8 | 9.7 | 20.9 | 0.00 | 0.41 | 0.00 | 69 | 1015.9 |
| 20260505091536 | 13 | 333 | 6.4 | 19.3 | 0.00 | 0.41 | 0.00 | 70 | 1015.9 |
| 20260505091019 | 12 | 356 | 6.4 | 19.3 | 0.00 | 0.41 | 0.00 | 71 | 1015.9 |
| 20260505090517 | 12 | 338 | 8.0 | 19.3 | 0.00 | 0.41 | 0.00 | 68 | 1015.8 |
| 20260505090035 | 12 | 355 | 9.7 | 19.3 | 0.00 | 0.41 | 0.00 | 70 | 1015.9 |
| 20260505085516 | 12 | 331 | 8.0 | 20.9 | 0.00 | 0.46 | 0.00 | 73 | 1015.9 |
| 20260505085017 | 12 | 25 | 9.7 | 20.9 | 0.00 | 0.46 | 0.00 | 73 | 1015.8 |
| 20260505084532 | 12 | 347 | 11.3 | 19.3 | 0.00 | 0.46 | 0.00 | 73 | 1015.9 |
| 20260505084014 | 12 | 354 | 11.3 | 17.7 | 0.00 | 0.46 | 0.00 | 73 | 1015.8 |
| 20260505083518 | 12 | 342 | 6.4 | 17.7 | 0.00 | 0.46 | 0.00 | 76 | 1015.9 |
| 20260505083036 | 12 | 41 | 9.7 | 17.7 | 0.00 | 0.46 | 0.00 | 75 | 1015.9 |
| 20260505082519 | 12 | 321 | 9.7 | 17.7 | 0.00 | 0.46 | 0.00 | 74 | 1015.9 |
| 20260505082018 | 12 | 342 | 6.4 | 16.1 | 0.00 | 0.46 | 0.00 | 77 | 1015.9 |
| 20260505081538 | 12 | 342 | 9.7 | 17.7 | 0.00 | 0.46 | 0.00 | 76 | 1015.8 |
| 20260505081018 | 12 | 1 | 9.7 | 17.7 | 0.00 | 0.46 | 0.00 | 78 | 1015.9 |
| 20260505080515 | 12 | 335 | 4.8 | 16.1 | 0.00 | 0.46 | 0.00 | 82 | 1015.8 |
| 20260505080337 | 12 | 333 | 4.8 | 16.1 | 0.00 | 0.46 | 0.00 | 82 | 1015.8 |
| 20260505075515 | 11 | 345 | 8.0 | 16.1 | 0.00 | 0.46 | 0.00 | 83 | 1015.8 |
| 20260505075019 | 11 | 346 | 8.0 | 14.5 | 0.00 | 0.46 | 0.00 | 84 | 1015.7 |
| 20260505074530 | 11 | 1 | 6.4 | 14.5 | 0.00 | 0.46 | 0.00 | 85 | 1015.8 |
| 20260505074015 | 11 | 16 | 8.0 | 14.5 | 0.00 | 0.46 | 0.00 | 84 | 1015.8 |
| 20260505073520 | 11 | 11 | 4.8 | 12.9 | 0.00 | 0.46 | 0.00 | 85 | 1015.7 |
| 20260505073034 | 11 | 338 | 6.4 | 14.5 | 0.00 | 0.46 | 0.00 | 85 | 1015.7 |
| 20260505072521 | 11 | 340 | 8.0 | 14.5 | 0.00 | 0.46 | 0.00 | 85 | 1015.8 |
| 20260505072015 | 11 | 333 | 3.2 | 12.9 | 0.00 | 0.46 | 0.00 | 85 | 1015.7 |
| 20260505071530 | 11 | 339 | 3.2 | 12.9 | 0.00 | 0.46 | 0.00 | 85 | 1015.8 |
| 20260505071016 | 10 | 14 | 6.4 | 12.9 | 0.00 | 0.46 | 0.00 | 84 | 1015.9 |
| 20260505070519 | 10 | 16 | 6.4 | 12.9 | 0.00 | 0.46 | 0.00 | 83 | 1015.9 |
| 20260505070037 | 10 | 356 | 8.0 | 12.9 | 0.00 | 0.46 | 0.00 | 84 | 1015.9 |
| 20260505065518 | 10 | 4 | 3.2 | 11.3 | 0.00 | 0.56 | 0.00 | 86 | 1015.9 |
| 20260505065014 | 10 | 335 | 0.0 | 3.2 | 0.00 | 0.56 | 0.00 | 87 | 1015.8 |
| 20260505064535 | 10 | 328 | 0.0 | 3.2 | 0.00 | 0.56 | 0.00 | 87 | 1015.8 |
| 20260505064015 | 10 | 336 | 0.0 | 3.2 | 0.00 | 0.56 | 0.00 | 87 | 1015.9 |
| 20260505063516 | 10 | 337 | 1.6 | 3.2 | 0.00 | 0.56 | 0.00 | 87 | 1015.8 |
| 20260505063030 | 10 | 0 | 0.0 | 4.8 | 0.00 | 0.56 | 0.00 | 88 | 1015.8 |
| 20260505062521 | 10 | 341 | 1.6 | 4.8 | 0.00 | 0.56 | 0.00 | 88 | 1015.7 |
| 20260505062015 | 10 | 338 | 1.6 | 4.8 | 0.00 | 0.56 | 0.00 | 88 | 1015.9 |
| 20260505061550 | 10 | 338 | 0.0 | 4.8 | 0.00 | 0.56 | 0.00 | 88 | 1015.8 |
| 20260505061015 | 10 | 340 | 1.6 | 6.4 | 0.00 | 0.56 | 0.00 | 88 | 1015.7 |
| 20260505060519 | 10 | 352 | 3.2 | 6.4 | 0.00 | 0.56 | 0.00 | 88 | 1015.8 |
| 20260505060035 | 10 | 345 | 1.6 | 4.8 | 0.00 | 0.56 | 0.00 | 88 | 1015.6 |
| 20260505055520 | 10 | 340 | 0.0 | 4.8 | 0.00 | 0.69 | 0.00 | 88 | 1015.7 |
| 20260505055016 | 10 | 0 | 1.6 | 4.8 | 0.00 | 0.69 | 0.00 | 88 | 1015.6 |
| 20260505054533 | 10 | 340 | 0.0 | 6.4 | 0.00 | 0.69 | 0.00 | 88 | 1015.7 |
| 20260505054018 | 10 | 340 | 1.6 | 6.4 | 0.00 | 0.69 | 0.00 | 88 | 1015.7 |
| 20260505053516 | 10 | 340 | 3.2 | 6.4 | 0.00 | 0.69 | 0.00 | 88 | 1015.6 |
| 20260505053039 | 10 | 340 | 1.6 | 9.7 | 0.00 | 0.69 | 0.00 | 88 | 1015.5 |
| 20260505052514 | 10 | 338 | 4.8 | 9.7 | 0.00 | 0.69 | 0.00 | 88 | 1015.6 |
| 20260505052015 | 10 | 349 | 3.2 | 9.7 | 0.00 | 0.69 | 0.00 | 88 | 1015.6 |
| 20260505051552 | 10 | 358 | 4.8 | 8.0 | 0.00 | 0.69 | 0.00 | 88 | 1015.4 |
| 20260505051018 | 10 | 356 | 4.8 | 9.7 | 0.00 | 0.69 | 0.00 | 88 | 1015.5 |
| 20260505050516 | 10 | 344 | 3.2 | 9.7 | 0.00 | 0.69 | 0.00 | 89 | 1015.4 |
| 20260505041533 | 10 | 343 | 3.2 | 8.0 | 0.00 | 1.12 | 0.00 | 90 | 1015.4 |
| 20260505041017 | 10 | 340 | 4.8 | 8.0 | 0.00 | 1.12 | 0.00 | 90 | 1015.3 |
| 20260505040516 | 10 | 338 | 3.2 | 8.0 | 0.00 | 1.12 | 0.00 | 90 | 1015.3 |
| 20260505040030 | 10 | 342 | 1.6 | 6.4 | 0.00 | 1.12 | 0.00 | 90 | 1015.3 |
| 20260505035516 | 10 | 338 | 1.6 | 4.8 | 0.00 | 1.12 | 0.00 | 90 | 1015.3 |
| 20260505035015 | 10 | 327 | 1.6 | 3.2 | 0.00 | 1.12 | 0.00 | 90 | 1015.3 |
| 20260505034533 | 10 | 338 | 0.0 | 4.8 | 0.00 | 1.12 | 0.00 | 90 | 1015.3 |
| 20260505034015 | 10 | 338 | 1.6 | 4.8 | 0.00 | 1.12 | 0.00 | 90 | 1015.3 |
| 20260505033515 | 10 | 354 | 1.6 | 4.8 | 0.00 | 1.12 | 0.00 | 90 | 1015.3 |
| 20260505033032 | 10 | 346 | 1.6 | 4.8 | 0.00 | 1.12 | 0.00 | 90 | 1015.3 |
| 20260505032514 | 11 | 337 | 0.0 | 6.4 | 0.00 | 1.12 | 0.00 | 89 | 1015.4 |
| 20260505032015 | 11 | 338 | 1.6 | 8.0 | 0.00 | 1.12 | 0.00 | 89 | 1015.3 |
| 20260505031530 | 11 | 345 | 4.8 | 8.0 | 0.00 | 1.12 | 0.00 | 90 | 1015.3 |
| 20260505031015 | 11 | 1 | 3.2 | 6.4 | 0.00 | 1.12 | 0.00 | 90 | 1015.3 |
| 20260505030516 | 11 | 338 | 3.2 | 8.0 | 0.00 | 1.12 | 0.00 | 90 | 1015.3 |
| 20260505030036 | 11 | 342 | 3.2 | 8.0 | 0.00 | 1.12 | 0.00 | 90 | 1015.3 |
| 20260505025516 | 11 | 342 | 3.2 | 8.0 | 0.00 | 1.12 | 0.00 | 90 | 1015.3 |
| 20260505025015 | 11 | 352 | 4.8 | 8.0 | 0.00 | 1.12 | 0.00 | 90 | 1015.2 |
| 20260505024533 | 11 | 348 | 4.8 | 8.0 | 0.00 | 1.12 | 0.00 | 90 | 1015.2 |
| 20260505024015 | 11 | 349 | 3.2 | 6.4 | 0.00 | 1.12 | 0.00 | 90 | 1015.2 |
| 20260505023515 | 11 | 349 | 1.6 | 6.4 | 0.00 | 1.12 | 0.00 | 90 | 1015.2 |
| 20260505023032 | 11 | 340 | 1.6 | 6.4 | 0.00 | 1.12 | 0.00 | 91 | 1015.3 |
| 20260505022516 | 11 | 338 | 1.6 | 6.4 | 0.00 | 1.12 | 0.00 | 91 | 1015.3 |
| 20260505022017 | 11 | 342 | 1.6 | 6.4 | 0.00 | 1.12 | 0.00 | 91 | 1015.3 |
| 20260505021534 | 11 | 339 | 1.6 | 6.4 | 0.00 | 1.12 | 0.00 | 91 | 1015.3 |
| 20260505021015 | 11 | 342 | 1.6 | 6.4 | 0.00 | 1.12 | 0.00 | 91 | 1015.3 |
| 20260505020515 | 11 | 347 | 1.6 | 6.4 | 0.00 | 1.12 | 0.00 | 91 | 1015.4 |
| 20260505020031 | 11 | 339 | 1.6 | 6.4 | 0.00 | 1.12 | 0.00 | 91 | 1015.3 |
| 20260505015515 | 11 | 345 | 3.2 | 6.4 | 0.00 | 1.12 | 0.00 | 91 | 1015.4 |
| 20260505015015 | 11 | 338 | 1.6 | 6.4 | 0.00 | 1.12 | 0.00 | 91 | 1015.4 |
| 20260505014530 | 11 | 342 | 3.2 | 6.4 | 0.00 | 1.12 | 0.00 | 91 | 1015.4 |
| 20260505014019 | 11 | 342 | 1.6 | 6.4 | 0.00 | 1.12 | 0.00 | 91 | 1015.4 |
| 20260505013515 | 11 | 356 | 1.6 | 6.4 | 0.00 | 1.12 | 0.00 | 90 | 1015.5 |
| 20260505013033 | 11 | 339 | 3.2 | 6.4 | 0.00 | 1.12 | 0.00 | 90 | 1015.5 |
| 20260505012515 | 11 | 346 | 3.2 | 6.4 | 0.00 | 1.12 | 0.00 | 90 | 1015.4 |
| 20260505012016 | 11 | 339 | 3.2 | 6.4 | 0.00 | 1.12 | 0.00 | 90 | 1015.5 |
| 20260505011534 | 11 | 338 | 1.6 | 8.0 | 0.00 | 1.12 | 0.00 | 90 | 1015.5 |
| 20260505011015 | 11 | 342 | 4.8 | 8.0 | 0.00 | 1.12 | 0.00 | 91 | 1015.7 |
| 20260505010517 | 11 | 350 | 3.2 | 8.0 | 0.00 | 1.12 | 0.00 | 91 | 1015.7 |
| 20260505010037 | 11 | 344 | 1.6 | 4.8 | 0.00 | 1.12 | 0.00 | 91 | 1015.7 |
| 20260505005517 | 11 | 338 | 3.2 | 6.4 | 0.00 | 1.12 | 0.00 | 91 | 1015.7 |
| 20260505005017 | 11 | 330 | 1.6 | 8.0 | 0.00 | 1.12 | 0.00 | 91 | 1015.7 |
| 20260505004530 | 11 | 338 | 3.2 | 8.0 | 0.00 | 1.12 | 0.00 | 91 | 1015.6 |
| 20260505004016 | 11 | 341 | 3.2 | 8.0 | 0.00 | 1.12 | 0.00 | 91 | 1015.7 |
| 20260505003518 | 11 | 346 | 3.2 | 8.0 | 0.00 | 1.12 | 0.00 | 91 | 1015.7 |
| 20260505003033 | 11 | 339 | 4.8 | 8.0 | 0.00 | 1.12 | 0.00 | 91 | 1015.8 |
| 20260505002515 | 11 | 354 | 3.2 | 8.0 | 0.00 | 1.12 | 0.00 | 91 | 1015.7 |
| 20260505002015 | 11 | 13 | 3.2 | 8.0 | 0.00 | 1.12 | 0.00 | 90 | 1015.8 |
| 20260505001533 | 11 | 346 | 3.2 | 8.0 | 0.00 | 1.12 | 0.00 | 90 | 1015.8 |
| 20260505001014 | 11 | 348 | 1.6 | 6.4 | 0.00 | 1.12 | 0.00 | 90 | 1015.9 |
| 20260505000515 | 11 | 346 | 3.2 | 6.4 | 0.00 | 1.12 | 0.00 | 90 | 1015.9 |
| 20260505000030 | 11 | 336 | 1.6 | 6.4 | 0.00 | 1.12 | 0.00 | 90 | 1015.9 |
| 20260504235515 | 11 | 347 | 1.6 | 8.0 | 0.00 | 1.12 | 0.00 | 90 | 1015.9 |
| 20260504235016 | 11 | 338 | 1.6 | 8.0 | 0.00 | 1.12 | 0.00 | 90 | 1016.0 |
| 20260504234534 | 11 | 346 | 0.0 | 3.2 | 0.00 | 1.12 | 0.00 | 90 | 1015.9 |
| 20260504234015 | 11 | 0 | 0.0 | 6.4 | 0.00 | 1.12 | 0.00 | 90 | 1015.9 |
| 20260504233515 | 11 | 339 | 0.0 | 6.4 | 0.00 | 1.12 | 0.00 | 90 | 1015.9 |
| 20260504233033 | 11 | 345 | 1.6 | 8.0 | 0.00 | 1.12 | 0.00 | 90 | 1016.0 |
| 20260504232516 | 11 | 344 | 3.2 | 8.0 | 0.00 | 1.12 | 0.00 | 90 | 1015.9 |
| 20260504232015 | 11 | 7 | 3.2 | 9.7 | 0.00 | 1.12 | 0.00 | 90 | 1015.9 |
| 20260504231531 | 11 | 345 | 4.8 | 12.9 | 0.00 | 1.12 | 0.00 | 90 | 1015.9 |
| 20260504231013 | 11 | 346 | 4.8 | 12.9 | 0.00 | 1.12 | 0.00 | 90 | 1015.8 |
| 20260504230517 | 11 | 347 | 6.4 | 11.3 | 0.00 | 1.12 | 0.00 | 90 | 1015.8 |
| 20260504230039 | 11 | 352 | 4.8 | 9.7 | 0.00 | 1.12 | 0.00 | 89 | 1015.8 |
| 20260504225518 | 11 | 11 | 3.2 | 8.0 | 0.00 | 1.12 | 1.12 | 89 | 1015.8 |
| 20260504225015 | 11 | 343 | 3.2 | 9.7 | 0.00 | 1.12 | 1.12 | 89 | 1015.9 |
| 20260504224532 | 11 | 340 | 4.8 | 9.7 | 0.00 | 1.12 | 1.12 | 89 | 1015.8 |
| 20260504224016 | 11 | 340 | 6.4 | 11.3 | 0.00 | 1.12 | 1.12 | 89 | 1015.9 |
| 20260504223517 | 11 | 28 | 4.8 | 11.3 | 0.00 | 1.12 | 1.12 | 89 | 1016.0 |
| 20260504223030 | 11 | 6 | 6.4 | 11.3 | 0.00 | 1.12 | 1.12 | 89 | 1016.0 |
| 20260504222516 | 11 | 357 | 6.4 | 11.3 | 0.00 | 1.12 | 1.12 | 89 | 1016.0 |
| 20260504222017 | 11 | 350 | 6.4 | 11.3 | 0.00 | 1.12 | 1.12 | 89 | 1015.9 |
| 20260504221532 | 11 | 13 | 4.8 | 11.3 | 0.00 | 1.12 | 1.12 | 89 | 1015.9 |
| 20260504221015 | 11 | 341 | 4.8 | 11.3 | 0.00 | 1.12 | 1.12 | 88 | 1015.9 |
| 20260504220518 | 11 | 351 | 4.8 | 11.3 | 0.00 | 1.12 | 1.12 | 88 | 1016.0 |
| 20260504220035 | 11 | 348 | 4.8 | 11.3 | 0.00 | 1.12 | 1.12 | 88 | 1016.0 |
| 20260504215515 | 11 | 340 | 6.4 | 11.3 | 0.00 | 1.12 | 1.12 | 89 | 1016.0 |